Location: Newark
(38.8913°N, 77.0259°W)
Time: 18:02:57
(UTC+00:00)

N. Korean satellite - Visible Passes

Search period start: 05 December 2019 00:00
Search period end: 15 December 2019 00:00
Orbit: 456 x 506 km, 97.2° (Epoch: 05 December)

Date Brightness Start Highest point End Pass type
(mag) Time Alt. Az. Time Alt. Az. Time Alt. Az.
05 Dec 9.0 10:21:34 10° NE 10:24:32 24° E 10:27:26 10° SSE visible
05 Dec 7.4 22:28:02 10° S 22:31:41 57° W 22:35:21 10° NNW visible
06 Dec 10.0 09:57:37 10° ENE 09:58:56 12° E 10:00:14 10° ESE visible
06 Dec 7.1 11:29:12 10° N 11:32:29 35° WNW 11:35:41 10° SW visible
07 Dec 6.4 11:03:34 10° N 11:07:07 82° WNW 11:10:36 10° SSW visible
07 Dec 9.8 23:11:59 10° SW 23:14:22 16° W 23:16:45 10° NW visible
08 Dec 7.9 10:38:17 10° NNE 10:41:40 41° E 10:44:58 10° S visible
08 Dec 8.6 22:45:26 10° SSW 22:48:48 33° W 22:52:11 10° NNW visible
09 Dec 9.4 10:13:32 10° NE 10:16:07 19° E 10:18:40 10° SE visible
09 Dec 6.9 22:19:38 10° S 22:23:20 75° WSW 22:27:03 10° NNW visible
10 Dec 6.7 11:20:44 10° N 11:24:09 45° WNW 11:27:27 10° SSW visible
11 Dec 6.6 10:55:13 10° NNE 10:58:45 76° ESE 11:02:11 10° S visible
11 Dec 9.6 23:03:10 10° SW 23:05:58 20° W 23:08:46 10° NW visible
12 Dec 8.4 10:30:05 10° NNE 10:33:15 32° E 10:36:22 10° SSE visible
12 Dec 8.1 22:36:54 10° S 22:40:26 42° W 22:43:58 10° NNW visible
13 Dec 9.7 10:05:35 10° ENE 10:07:40 15° E 10:09:43 10° SE visible
13 Dec 7.4 11:38:06 10° NNW 11:41:05 26° WNW 11:44:01 10° SW visible
13 Dec 6.6 22:11:17 10° SSE 22:14:59 84° ENE 22:18:41 10° N visible
14 Dec 6.4 11:12:18 10° N 11:15:45 59° WNW 11:19:08 10° SSW visible
14 Dec 10.0 23:21:33 10° WSW 23:23:08 12° W 23:24:43 10° WNW visible
